SCP
0 0 0 0 0 0 0 0 0 0 0 0 0 0 0 0 0 0 0 0 0 0 0 0 0 0 0 0 0 0 0 0
0 0 0 0 0 0 0 0 0 0 0 0 0 0 0 0 0 0 0 0 0 0 0 0 0 0 0 0 0 0 0 0
0 0 0 0 0 0 0 0 0 0 0 0 0 0 0 0 0 0 0 0 0 0 0 0 0 0 0 0 0 0 0 0
0 0 0 0 0 0 0 0 0 0 0 0 0 0 0 0 0 0 0 0 0 0 0 0 0 0 0 0 0 0 0 0
0 0 0 0 0 0 0 0 0 0 0 0 0 0 0 0 0 0 0 0 0 0 0 0 0 0 0 0 0 0 0 0
0 0 0 0 0 0 0 0 0 0 0 0 0 0 0 0 0 0 0 0 0 0 0 0 0 0 0 0 0 0 0 0
0 0 0 0 0 0 0 0 0 0 0 0 0 0 0 0 0 0 0 0 0 0 0 0 0 0 0 0 0 0 0 0
0 0 0 0 0 0 0 0 0 0 0 0 0 0 0 0 0 0 0 0 0 0 0 0 0 0 0 0 0 0 0 0
0 0 0 0 0 0 0 0 0 0 0 0 0 0 0 0 0 0 0 0 0 0 0 0 0 0 0 0 0 0 0 0
0 0 0 0 0 0 0 0 0 0 0 0 0 0 0 0 0 0 0 0 0 0 0 0 0 0 0 0 0 0 0 0
0 0 0 0 0 0 0 0 0 0 0 0 0 0 0 0 0 0 0 0 0 0 0 0 0 0 0 0 0 0 0 0
0 0 0 0 0 0 0 0 0 0 0 0 0 0 0 0 0 0 0 0 0 0 0 0 0 0 0 0 0 0 0 0
0 0 0 0 0 0 0 0 0 0 0 0 0 0 0 0 0 0 0 0 0 0 0 0 0 0 0 0 0 0 0 0
0 0 0 0 0 0 0 0 0 0 0 0 0 0 0 0 0 0 0 0 0 0 0 0 0 0 0 0 0 0 0 0
0 0 0 0 0 0 0 0 0 0 0 0 0 0 0 0 0 0 0 0 0 0 0 0 0 0 0 0 0 0 0 0
0 0 0 0 0 0 0 0 0 0 0 0 0 0 0 0 0 0 0 0 0 0 0 0 0 0 0 0 0 0 0 0
0 0 0 0 0 0 0 0 0 0 0 0 0 0 0 0 0 0 0 0 0 0 0 0 0 0 0 0 0 0 0 0
0 0 0 0 0 0 0 0 0 0 0 0 0 0 0 0 0 0 0 0 0 0 0 0 0 0 0 0 0 0 0 0
0 0 0 0 0 0 0 0 0 0 0 0 0 0 0 0 0 0 0 0 0 0 0 0 0 0 0 0 0 0 0 0
0 0 0 0 0 0 0 0 0 0 0 0 0 0 0 0 0 0 0 0 0 0 0 0 0 0 0 0 0 0 0 0
Wind_Speed_500mb
26 26 32 43 60 67 70 70 68 70 76 75 73 72 71 73 73 73 74 73 71 70 68 64 63 65 69 74 77 82 87 92
35 33 33 37 41 50 54 54 55 58 61 67 70 70 70 72 73 76 76 75 76 74 71 68 67 65 68 69 75 78 79 84
38 32 31 28 25 30 38 45 47 50 54 57 59 61 66 70 70 68 71 71 69 67 67 65 62 63 67 70 69 77 80 79
35 29 25 23 21 21 22 25 31 37 42 48 54 58 61 62 63 64 64 66 65 64 62 61 61 60 63 61 69 74 70 69
37 34 30 26 23 21 20 21 22 24 27 33 38 44 49 53 56 59 61 63 62 58 58 58 63 56 61 58 57 56 61 70
40 39 36 33 27 23 21 21 25 30 33 33 35 38 42 45 47 50 52 53 51 47 48 52 55 58 58 63 65 66 65 63
44 41 37 33 28 27 28 31 32 34 33 33 32 32 32 32 33 34 36 37 40 43 44 51 56 53 56 58 57 56 52 51
52 46 42 36 32 32 33 35 36 36 36 37 33 31 30 29 28 28 28 30 32 35 39 41 43 45 47 52 54 57 60 62
57 55 46 39 34 34 36 37 37 37 37 35 32 29 27 26 25 24 24 26 28 32 35 35 35 34 31 30 32 36 37 38
62 56 49 40 36 36 40 40 38 37 32 29 26 22 21 21 23 24 26 27 28 30 31 30 29 26 26 29 31 34 35 36
65 53 44 42 42 41 41 38 34 28 24 20 17 16 15 16 16 17 19 21 23 24 24 24 25 26 26 27 31 33 33 32
58 49 42 42 39 38 35 31 27 24 19 16 13 11 9 7 6 7 10 11 15 18 21 23 22 23 24 25 26 28 29 25
59 51 47 42 38 37 33 31 32 30 27 22 16 11 8 4 5 7 9 10 13 18 21 23 23 24 26 27 25 25 24 20
60 53 49 47 45 43 41 40 34 28 21 16 12 9 5 2 3 5 6 8 11 13 16 19 20 23 25 25 24 19 17 16
65 60 60 57 53 44 42 40 32 27 23 16 11 5 3 1 0 1 2 5 7 11 14 16 18 20 21 22 24 24 18 17
67 67 63 60 54 49 44 38 32 25 19 17 13 12 11 10 7 7 7 8 10 12 15 16 20 23 24 23 24 26 26 28
70 67 67 63 55 49 41 34 29 26 24 23 23 22 20 16 13 11 10 10 10 12 13 16 19 22 25 28 30 31 32 34
72 68 67 61 55 48 41 38 34 31 32 30 26 23 18 15 13 12 12 11 10 11 13 16 20 23 26 29 30 32 31 31
72 67 62 60 56 50 47 45 42 38 32 27 24 20 16 14 12 11 11 9 8 9 12 17 21 24 28 28 31 33 33 30
68 65 60 57 56 55 50 44 40 35 33 30 25 22 18 15 11 8 5 5 9 13 18 20 24 27 30 32 33 35 37 39
Wind_Direction_500mb
225 224 230 237 240 243 246 249 253 254 253 255 258 260 263 265 267 270 272 274 275 277 278 278 277 275 271 270 268 267 270 266
230 232 235 239 237 235 235 239 245 250 251 254 256 259 262 263 265 267 271 272 273 274 275 276 275 274 273 269 272 273 273 271
221 222 226 227 223 224 229 237 244 249 252 254 257 259 261 263 265 267 268 271 272 274 275 277 277 278 279 274 275 271 271 275
202 204 199 196 197 203 210 220 231 238 244 249 252 254 257 261 264 265 266 267 270 271 272 273 274 276 275 278 280 273 276 279
186 185 184 182 181 187 197 210 222 229 234 239 243 247 250 253 256 259 259 260 263 266 266 267 268 270 274 277 271 279 283 283
185 185 189 192 195 204 216 225 231 237 241 244 246 247 250 252 254 256 256 257 259 259 258 260 267 268 272 270 282 282 283 283
195 195 198 201 209 223 234 239 241 245 249 253 255 257 259 260 261 264 266 266 264 265 262 267 269 268 264 268 271 274 280 285
202 202 204 210 218 229 238 244 244 245 250 253 256 258 257 255 254 255 257 260 264 269 272 274 275 277 273 269 266 270 274 278
207 205 207 216 228 237 240 240 240 243 246 248 250 251 253 252 252 255 261 268 274 276 277 276 276 278 280 283 286 286 288 285
210 206 211 223 234 235 234 235 237 239 243 247 248 252 256 261 261 263 266 272 278 282 285 292 290 293 291 288 289 288 282 280
204 210 221 230 232 230 229 229 229 233 234 234 238 240 244 254 266 277 282 288 291 295 295 284 286 290 288 286 283 287 278 270
206 216 224 228 225 220 217 210 207 201 200 194 179 184 189 216 245 266 279 284 281 277 278 282 281 279 280 283 287 294 300 297
206 214 220 220 216 205 197 188 184 168 175 173 176 180 193 221 265 281 303 316 309 298 293 290 282 286 288 288 283 281 279 286
206 208 206 204 197 192 181 177 172 168 166 166 175 187 194 211 279 320 327 318 310 300 293 293 291 286 281 283 288 290 285 282
199 199 197 190 186 181 182 177 167 170 175 177 176 161 140 115 161 292 348 360 343 330 330 326 313 306 303 301 296 291 276 267
195 191 188 184 180 180 181 173 168 173 172 173 175 168 156 153 124 76 52 36 22 8 359 354 349 340 334 323 306 296 289 274
189 186 183 180 178 180 175 169 172 176 173 175 168 158 153 146 130 108 86 72 49 29 13 2 357 353 346 340 331 321 308 297
183 182 179 176 177 177 177 172 169 179 171 165 158 153 147 134 126 119 107 84 56 28 11 2 356 351 346 340 336 330 321 310
179 178 177 176 177 176 174 169 170 172 166 158 154 146 140 135 131 114 94 80 57 24 359 347 343 338 335 335 337 335 333 329
178 176 176 176 176 173 171 167 170 167 160 156 154 151 148 144 132 114 78 30 1 351 337 330 326 325 327 328 328 330 327 325
Wind_Speed_850mb
26 26 32 43 60 67 70 70 68 70 76 75 73 72 71 73 73 73 74 73 71 70 68 64 63 65 69 74 77 82 87 92
35 33 33 37 41 50 54 54 55 58 61 67 70 70 70 72 73 76 76 75 76 74 71 68 67 65 68 69 75 78 79 84
38 32 31 28 25 30 38 45 47 50 54 57 59 61 66 70 70 68 71 71 69 67 67 65 62 63 67 70 69 77 80 79
35 29 25 23 21 21 22 25 31 37 42 48 54 58 61 62 63 64 64 66 65 64 62 61 61 60 63 61 69 74 70 69
37 34 30 26 23 21 20 21 22 24 27 33 38 44 49 53 56 59 61 63 62 58 58 58 63 56 61 58 57 56 61 70
40 39 36 33 27 23 21 21 25 30 33 33 35 38 42 45 47 50 52 53 51 47 48 52 55 58 58 63 65 66 65 63
44 41 37 33 28 27 28 31 32 34 33 33 32 32 32 32 33 34 36 37 40 43 44 51 56 53 56 58 57 56 52 51
52 46 42 36 32 32 33 35 36 36 36 37 33 31 30 29 28 28 28 30 32 35 39 41 43 45 47 52 54 57 60 62
57 55 46 39 34 34 36 37 37 37 37 35 32 29 27 26 25 24 24 26 28 32 35 35 35 34 31 30 32 36 37 38
62 56 49 40 36 36 40 40 38 37 32 29 26 22 21 21 23 24 26 27 28 30 31 30 29 26 26 29 31 34 35 36
65 53 44 42 42 41 41 38 34 28 24 20 17 16 15 16 16 17 19 21 23 24 24 24 25 26 26 27 31 33 33 32
58 49 42 42 39 38 35 31 27 24 19 16 13 11 9 7 6 7 10 11 15 18 21 23 22 23 24 25 26 28 29 25
59 51 47 42 38 37 33 31 32 30 27 22 16 11 8 4 5 7 9 10 13 18 21 23 23 24 26 27 25 25 24 20
60 53 49 47 45 43 41 40 34 28 21 16 12 9 5 2 3 5 6 8 11 13 16 19 20 23 25 25 24 19 17 16
65 60 60 57 53 44 42 40 32 27 23 16 11 5 3 1 0 1 2 5 7 11 14 16 18 20 21 22 24 24 18 17
67 67 63 60 54 49 44 38 32 25 19 17 13 12 11 10 7 7 7 8 10 12 15 16 20 23 24 23 24 26 26 28
70 67 67 63 55 49 41 34 29 26 24 23 23 22 20 16 13 11 10 10 10 12 13 16 19 22 25 28 30 31 32 34
72 68 67 61 55 48 41 38 34 31 32 30 26 23 18 15 13 12 12 11 10 11 13 16 20 23 26 29 30 32 31 31
72 67 62 60 56 50 47 45 42 38 32 27 24 20 16 14 12 11 11 9 8 9 12 17 21 24 28 28 31 33 33 30
68 65 60 57 56 55 50 44 40 35 33 30 25 22 18 15 11 8 5 5 9 13 18 20 24 27 30 32 33 35 37 39
Wind_Direction_850mb
225 224 230 237 240 243 246 249 253 254 253 255 258 260 263 265 267 270 272 274 275 277 278 278 277 275 271 270 268 267 270 266
230 232 235 239 237 235 235 239 245 250 251 254 256 259 262 263 265 267 271 272 273 274 275 276 275 274 273 269 272 273 273 271
221 222 226 227 223 224 229 237 244 249 252 254 257 259 261 263 265 267 268 271 272 274 275 277 277 278 279 274 275 271 271 275
202 204 199 196 197 203 210 220 231 238 244 249 252 254 257 261 264 265 266 267 270 271 272 273 274 276 275 278 280 273 276 279
186 185 184 182 181 187 197 210 222 229 234 239 243 247 250 253 256 259 259 260 263 266 266 267 268 270 274 277 271 279 283 283
185 185 189 192 195 204 216 225 231 237 241 244 246 247 250 252 254 256 256 257 259 259 258 260 267 268 272 270 282 282 283 283
195 195 198 201 209 223 234 239 241 245 249 253 255 257 259 260 261 264 266 266 264 265 262 267 269 268 264 268 271 274 280 285
202 202 204 210 218 229 238 244 244 245 250 253 256 258 257 255 254 255 257 260 264 269 272 274 275 277 273 269 266 270 274 278
207 205 207 216 228 237 240 240 240 243 246 248 250 251 253 252 252 255 261 268 274 276 277 276 276 278 280 283 286 286 288 285
210 206 211 223 234 235 234 235 237 239 243 247 248 252 256 261 261 263 266 272 278 282 285 292 290 293 291 288 289 288 282 280
204 210 221 230 232 230 229 229 229 233 234 234 238 240 244 254 266 277 282 288 291 295 295 284 286 290 288 286 283 287 278 270
206 216 224 228 225 220 217 210 207 201 200 194 179 184 189 216 245 266 279 284 281 277 278 282 281 279 280 283 287 294 300 297
206 214 220 220 216 205 197 188 184 168 175 173 176 180 193 221 265 281 303 316 309 298 293 290 282 286 288 288 283 281 279 286
206 208 206 204 197 192 181 177 172 168 166 166 175 187 194 211 279 320 327 318 310 300 293 293 291 286 281 283 288 290 285 282
199 199 197 190 186 181 182 177 167 170 175 177 176 161 140 115 161 292 348 360 343 330 330 326 313 306 303 301 296 291 276 267
195 191 188 184 180 180 181 173 168 173 172 173 175 168 156 153 124 76 52 36 22 8 359 354 349 340 334 323 306 296 289 274
189 186 183 180 178 180 175 169 172 176 173 175 168 158 153 146 130 108 86 72 49 29 13 2 357 353 346 340 331 321 308 297
183 182 179 176 177 177 177 172 169 179 171 165 158 153 147 134 126 119 107 84 56 28 11 2 356 351 346 340 336 330 321 310
179 178 177 176 177 176 174 169 170 172 166 158 154 146 140 135 131 114 94 80 57 24 359 347 343 338 335 335 337 335 333 329
178 176 176 176 176 173 171 167 170 167 160 156 154 151 148 144 132 114 78 30 1 351 337 330 326 325 327 328 328 330 327 325